| time (UTC) | temp C | wind direction | speed KPH | gust KPH | rain 1hr cm | rain 24hr cm | rain mn cm | humidity % | barometer mb |
| 20260505040905 | 9 | 0 | 0.0 | 0.0 | 0.56 | 1.50 | 1.30 | 95 | 1006.0 |
| 20260505040218 | 9 | 0 | 0.0 | 0.0 | 0.64 | 1.50 | 1.30 | 95 | 1006.0 |
| 20260505035405 | 9 | 0 | 0.0 | 0.0 | 0.69 | 1.47 | 1.27 | 95 | 1006.2 |
| 20260505034505 | 10 | 345 | 0.0 | 1.6 | 0.74 | 1.45 | 1.24 | 95 | 1006.4 |
| 20260505033603 | 9 | 10 | 0.0 | 3.2 | 0.71 | 1.35 | 1.14 | 95 | 1006.6 |
| 20260505032704 | 10 | 0 | 0.0 | 0.0 | 0.66 | 1.24 | 1.04 | 95 | 1006.1 |
| 20260505032019 | 10 | 341 | 0.0 | 1.6 | 0.61 | 1.14 | 0.94 | 95 | 1006.0 |
| 20260505030903 | 10 | 14 | 0.0 | 1.6 | 0.43 | 0.94 | 0.74 | 95 | 1006.9 |
| 20260505030004 | 10 | 315 | 0.0 | 1.6 | 0.38 | 0.84 | 0.64 | 95 | 1006.9 |
| 20260505025617 | 10 | 0 | 0.0 | 0.0 | 0.33 | 0.79 | 0.58 | 95 | 1007.1 |
| 20260505024503 | 10 | 0 | 0.0 | 0.0 | 0.30 | 0.71 | 0.51 | 95 | 1006.9 |
| 20260505023603 | 10 | 0 | 0.0 | 0.0 | 0.28 | 0.64 | 0.43 | 95 | 1007.0 |
| 20260505022919 | 10 | 4 | 0.0 | 1.6 | 0.23 | 0.58 | 0.38 | 95 | 1007.1 |
| 20260505021803 | 10 | 0 | 0.0 | 0.0 | 0.20 | 0.53 | 0.33 | 95 | 1007.4 |
| 20260505020903 | 10 | 0 | 0.0 | 0.0 | 0.18 | 0.51 | 0.30 | 95 | 1007.1 |
| 20260505020005 | 10 | 0 | 0.0 | 0.0 | 0.13 | 0.46 | 0.25 | 95 | 1007.0 |
| 20260505015403 | 10 | 0 | 0.0 | 0.0 | 0.13 | 0.46 | 0.25 | 95 | 1007.0 |
| 20260505014503 | 10 | 335 | 0.0 | 1.6 | 0.08 | 0.41 | 0.20 | 95 | 1007.1 |
| 20260505013603 | 10 | 316 | 0.0 | 1.6 | 0.03 | 0.36 | 0.15 | 94 | 1007.0 |
| 20260505012703 | 10 | 0 | 0.0 | 0.0 | 0.00 | 0.33 | 0.13 | 94 | 1007.3 |
| 20260505011803 | 10 | 0 | 0.0 | 0.0 | 0.00 | 0.33 | 0.13 | 94 | 1007.3 |
| 20260505010903 | 10 | 325 | 0.0 | 1.6 | 0.00 | 0.33 | 0.13 | 94 | 1007.1 |
| 20260505010221 | 10 | 0 | 0.0 | 0.0 | 0.00 | 0.33 | 0.13 | 94 | 1007.1 |
| 20260505005403 | 10 | 0 | 0.0 | 0.0 | 0.00 | 0.33 | 0.13 | 94 | 1007.4 |
| 20260505004505 | 10 | 0 | 0.0 | 0.0 | 0.00 | 0.33 | 0.13 | 94 | 1007.4 |
| 20260505003819 | 10 | 360 | 0.0 | 1.6 | 0.00 | 0.33 | 0.13 | 94 | 1007.6 |
| 20260505002918 | 10 | 7 | 0.0 | 1.6 | 0.00 | 0.33 | 0.13 | 94 | 1007.9 |
| 20260505001805 | 10 | 0 | 0.0 | 0.0 | 0.03 | 0.33 | 0.13 | 94 | 1007.9 |
| 20260505000903 | 10 | 0 | 0.0 | 0.0 | 0.03 | 0.33 | 0.13 | 94 | 1008.2 |
| 20260505000218 | 10 | 0 | 0.0 | 0.0 | 0.03 | 0.33 | 0.13 | 94 | 1008.3 |
| 20260504235405 | 10 | 0 | 0.0 | 0.0 | 0.05 | 0.33 | 0.13 | 94 | 1008.4 |
| 20260504234505 | 10 | 0 | 0.0 | 0.0 | 0.10 | 0.33 | 0.13 | 94 | 1008.6 |
| 20260504233819 | 10 | 0 | 0.0 | 0.0 | 0.10 | 0.33 | 0.13 | 94 | 1008.7 |
| 20260504232703 | 10 | 0 | 0.0 | 0.0 | 0.13 | 0.33 | 0.13 | 94 | 1008.9 |
| 20260504231803 | 10 | 0 | 0.0 | 0.0 | 0.10 | 0.30 | 0.10 | 93 | 1009.0 |
| 20260504230905 | 10 | 0 | 0.0 | 0.0 | 0.10 | 0.30 | 0.10 | 93 | 1009.2 |
| 20260504230220 | 10 | 18 | 0.0 | 1.6 | 0.10 | 0.30 | 0.10 | 93 | 1009.4 |
| 20260504225615 | 10 | 9 | 0.0 | 3.2 | 0.08 | 0.28 | 0.08 | 93 | 1009.5 |
| 20260504224505 | 10 | 348 | 0.0 | 1.6 | 0.03 | 0.23 | 0.03 | 93 | 1009.6 |
| 20260504223605 | 10 | 5 | 0.0 | 1.6 | 0.03 | 0.23 | 0.03 | 93 | 1009.6 |
| 20260504222705 | 10 | 0 | 0.0 | 0.0 | 0.00 | 0.20 | 0.00 | 93 | 1009.8 |
| 20260504222021 | 10 | 0 | 0.0 | 0.0 | 0.00 | 0.20 | 0.00 | 93 | 1009.7 |
| 20260504221120 | 10 | 0 | 0.0 | 0.0 | 0.03 | 0.20 | 0.00 | 92 | 1009.7 |
| 20260504220220 | 10 | 0 | 0.0 | 0.0 | 0.03 | 0.20 | 0.00 | 92 | 1009.8 |
| 20260504215405 | 10 | 0 | 0.0 | 0.0 | 0.03 | 0.20 | 0.20 | 92 | 1009.9 |
| 20260504214719 | 10 | 0 | 0.0 | 0.0 | 0.03 | 0.20 | 0.20 | 92 | 1010.1 |
| 20260504213604 | 10 | 0 | 0.0 | 0.0 | 0.03 | 0.20 | 0.20 | 91 | 1010.1 |
| 20260504212703 | 10 | 0 | 0.0 | 0.0 | 0.03 | 0.20 | 0.20 | 91 | 1010.1 |
| 20260504211803 | 10 | 0 | 0.0 | 0.0 | 0.03 | 0.18 | 0.18 | 91 | 1010.1 |
| 20260504211120 | 10 | 0 | 0.0 | 0.0 | 0.05 | 0.18 | 0.18 | 92 | 1010.1 |
| 20260504210005 | 10 | 0 | 0.0 | 0.0 | 0.08 | 0.18 | 0.18 | 91 | 1010.1 |
| 20260504205403 | 11 | 0 | 0.0 | 0.0 | 0.08 | 0.18 | 0.18 | 91 | 1010.2 |
| 20260504204505 | 10 | 0 | 0.0 | 0.0 | 0.08 | 0.18 | 0.18 | 91 | 1010.3 |
| 20260504203603 | 10 | 0 | 0.0 | 0.0 | 0.10 | 0.18 | 0.18 | 92 | 1010.4 |
| 20260504202705 | 11 | 0 | 0.0 | 0.0 | 0.10 | 0.18 | 0.18 | 93 | 1010.3 |
| 20260504201803 | 11 | 0 | 0.0 | 0.0 | 0.10 | 0.15 | 0.15 | 93 | 1010.3 |
| 20260504200905 | 11 | 0 | 0.0 | 0.0 | 0.05 | 0.10 | 0.10 | 92 | 1010.3 |
| 20260504200219 | 11 | 0 | 0.0 | 0.0 | 0.05 | 0.10 | 0.10 | 92 | 1010.2 |
| 20260504195405 | 11 | 0 | 0.0 | 0.0 | 0.05 | 0.10 | 0.10 | 92 | 1010.3 |
| 20260504194718 | 11 | 0 | 0.0 | 0.0 | 0.05 | 0.10 | 0.10 | 92 | 1010.1 |
| 20260504193603 | 11 | 0 | 0.0 | 0.0 | 0.03 | 0.08 | 0.08 | 92 | 1010.2 |
| 20260504192705 | 11 | 28 | 0.0 | 1.6 | 0.03 | 0.08 | 0.08 | 92 | 1010.2 |
| 20260504192020 | 11 | 350 | 0.0 | 1.6 | 0.00 | 0.05 | 0.05 | 92 | 1010.1 |
| 20260504190905 | 11 | 355 | 0.0 | 1.6 | 0.00 | 0.05 | 0.05 | 91 | 1009.9 |
| 20260504185618 | 11 | 0 | 0.0 | 0.0 | 0.03 | 0.05 | 0.05 | 91 | 1009.6 |
| 20260504184503 | 11 | 359 | 0.0 | 1.6 | 0.03 | 0.05 | 0.05 | 91 | 1009.7 |
| 20260504183603 | 11 | 342 | 0.0 | 1.6 | 0.03 | 0.05 | 0.05 | 91 | 1009.8 |
| 20260504182703 | 11 | 0 | 0.0 | 0.0 | 0.03 | 0.05 | 0.05 | 90 | 1009.9 |
| 20260504181803 | 11 | 19 | 0.0 | 1.6 | 0.05 | 0.05 | 0.05 | 90 | 1009.8 |
| 20260504180903 | 11 | 16 | 0.0 | 1.6 | 0.05 | 0.05 | 0.05 | 89 | 1009.8 |
| 20260504180004 | 11 | 3 | 0.0 | 1.6 | 0.03 | 0.03 | 0.03 | 88 | 1009.9 |
| 20260504175405 | 12 | 0 | 0.0 | 0.0 | 0.03 | 0.03 | 0.03 | 87 | 1009.6 |
| 20260504174505 | 12 | 0 | 0.0 | 0.0 | 0.03 | 0.03 | 0.03 | 86 | 1009.6 |
| 20260504173603 | 12 | 18 | 0.0 | 4.8 | 0.03 | 0.03 | 0.03 | 84 | 1009.7 |
| 20260504172705 | 13 | 7 | 0.0 | 1.6 | 0.03 | 0.03 | 0.03 | 83 | 1009.7 |
| 20260504171803 | 14 | 345 | 0.0 | 1.6 | 0.00 | 0.00 | 0.00 | 79 | 1009.4 |
| 20260504170903 | 15 | 0 | 0.0 | 0.0 | 0.00 | 0.00 | 0.00 | 70 | 1009.4 |
| 20260504150903 | 16 | 147 | 0.0 | 1.6 | 0.00 | 0.00 | 0.00 | 62 | 1009.4 |
| 20260504141117 | 18 | 287 | 0.0 | 4.8 | 0.00 | 0.00 | 0.00 | 56 | 1009.6 |
| 20260504081803 | 16 | 0 | 0.0 | 0.0 | 0.00 | 0.00 | 0.00 | 62 | 1010.9 |
| 20260504080905 | 16 | 345 | 0.0 | 1.6 | 0.00 | 0.00 | 0.00 | 65 | 1010.7 |
| 20260504050004 | 12 | 0 | 0.0 | 0.0 | 0.00 | 0.00 | 0.00 | 80 | 1009.5 |